Location: Kalberh�ni
(46.4610°N, 7.2453°E)
Time: 04:01:06
(UTC+00:00)

Cosmos 1900 - Visible Passes

Search period start: 27 October 2021 00:00
Search period end: 06 November 2021 00:00
Orbit: 691 x 730 km, 66.1° (Epoch: 26 October)

Date Brightness Start Highest point End Pass type
(mag) Time Alt. Az. Time Alt. Az. Time Alt. Az.
27 Oct 4.7 03:37:35 51° SSE 03:38:30 61° ESE 03:43:19 10° NE visible
27 Oct 5.4 05:16:41 10° W 05:20:37 25° NW 05:24:42 10° NNE visible
28 Oct 6.3 02:44:58 26° E 02:44:58 26° E 02:48:00 10° NE visible
28 Oct 4.6 04:24:03 36° W 04:25:25 45° NW 04:30:08 10° NNE visible
29 Oct 4.6 03:31:16 62° NNE 03:31:16 62° NNE 03:35:21 10° NE visible
29 Oct 5.8 05:10:21 14° WNW 05:12:53 19° NW 05:16:25 10° N visible
30 Oct 6.5 02:38:24 22° ENE 02:38:24 22° ENE 02:40:18 10° NE visible
30 Oct 5.1 04:17:28 32° NW 04:17:33 32° NW 04:21:57 10° NNE visible
31 Oct 5.6 03:24:29 33° NNE 03:24:29 33° NNE 03:27:18 10° NNE visible
31 Oct 6.1 05:03:33 13° NW 05:05:13 15° NNW 05:08:04 10° N visible
01 Nov 6.9 02:31:26 16° NE 02:31:26 16° NE 02:32:25 10° NE visible
01 Nov 5.7 04:10:30 23° NNW 04:10:30 23° NNW 04:13:45 10° NNE visible
02 Nov 6.2 03:17:23 21° NNE 03:17:23 21° NNE 03:19:11 10° NNE visible
02 Nov 6.3 04:56:26 11° NW 04:57:36 12° NNW 04:59:33 10° N visible
03 Nov 7.2 02:24:12 11° NNE 02:24:12 11° NNE 02:24:26 10° NNE visible
03 Nov 6.2 04:03:16 17° NNW 04:03:16 17° NNW 04:05:27 10° N visible
04 Nov 6.7 03:10:03 15° NNE 03:10:03 15° NNE 03:11:00 10° NNE visible
05 Nov 6.5 03:55:52 13° N 03:55:52 13° N 03:57:05 10° N visible
